Regional Weather Roundup
Issued by NWS

Home | Current Version | Previous Version | Graphics & Text | Print | Product List | Glossary On
Versions: 1 2 3 4 5 6 7 8 9 10 11 12 13 14 15 16 17 18 19 20 21 22 23 24 25 26 27 28 29 30 31 32 33 34 35 36 37 38 39 40 41 42 43 44 45 46 47 48 49 50
000
ASUS43 KBIS 251702
RWRND

NORTH DAKOTA REGIONAL WEATHER ROUNDUP
NATIONAL WEATHER SERVICE BISMARCK ND
1200 PM CDT THU AUG 25 2016

NOTE: "FAIR" INDICATES FEW OR NO CLOUDS BELOW 12,000 FEET WITH NO
SIGNIFICANT WEATHER AND/OR OBSTRUCTIONS TO VISIBILITY.


NDZ001>003-009>011-017-251800-
NORTHWEST NORTH DAKOTA

CITY           SKY/WX    TMP DP  RH WIND       PRES   REMARKS
WILLISTON      MOSUNNY   70  45  40 W14       30.19S
MINOT          PTSUNNY   67  48  50 NW17G25   30.14S
MINOT AFB      MOSUNNY   66  49  54 NW17G23   30.12F
$$

NDZ018>021-031>035-040>046-251800-
SOUTHWEST NORTH DAKOTA

CITY           SKY/WX    TMP DP  RH WIND       PRES   REMARKS
BISMARCK       CLOUDY    62  50  64 N15       30.17R
DICKINSON      MOSUNNY   60  44  55 NW12G20   30.21F
GARRISON         N/A     63  47  55 N10       30.17R
HETTINGER ARPT CLOUDY    58  43  57 N17G25    30.26S
$$

NDZ004>008-012>016-024-026-027-054-251800-
NORTHEAST NORTH DAKOTA

CITY           SKY/WX    TMP DP  RH WIND       PRES   REMARKS
GRAND FORKS    PTSUNNY   67  51  56 NW17G28   30.01R
GRND FRKS AFB  MOSUNNY   67  50  54 N18       30.03R
DEVILS LAKE    CLOUDY    61  51  70 NW15      30.09R
$$

NDZ022-023-025-028>030-036>039-047>053-251800-
SOUTHEAST NORTH DAKOTA

CITY           SKY/WX    TMP DP  RH WIND       PRES   REMARKS
FARGO          LGT RAIN  64  56  75 W14       30.04R
JAMESTOWN      CLOUDY    59  53  80 NW14      30.10R
$$





USA.gov is the U.S. government's official web portal to all federal, state and local government web resources and services.